Wind_Speed
56 53 49 44 42 38 38 41 48 54 59 60 62 62 64 64 64 63 65 63 66 69 73 71 70 68 67 67 63 58 51 43 33 28 24 22 24 27 32 39 47 53 67 80
52 47 42 36 34 35 39 44 50 55 58 61 63 61 62 62 61 61 62 63 66 70 72 70 69 69 68 68 65 60 52 45 36 28 24 20 21 24 29 34 43 51 59 75
45 42 34 32 33 35 38 45 50 55 57 60 59 61 59 59 58 58 60 62 65 70 70 68 68 69 68 68 65 61 54 46 39 29 24 20 18 22 27 31 41 49 55 68
39 34 31 31 34 36 39 45 52 57 57 57 58 58 59 57 56 57 58 60 64 68 67 66 67 69 69 69 67 63 54 47 40 32 25 21 18 20 23 26 36 46 51 59
38 31 30 31 34 37 42 48 54 56 56 57 57 54 54 54 51 53 56 59 64 64 63 64 66 68 70 70 68 65 58 50 41 35 26 22 19 18 19 23 30 38 47 53
33 29 30 30 33 40 44 50 54 55 55 56 56 54 50 46 48 50 52 58 61 60 60 62 64 66 68 69 70 66 60 52 44 36 30 23 20 17 18 21 25 31 39 46
29 27 30 30 35 40 45 50 54 55 56 56 54 52 48 45 45 49 52 56 55 56 58 61 62 64 68 68 70 69 62 54 47 37 32 26 22 19 18 20 23 28 32 38
27 28 29 32 36 41 46 51 53 55 55 53 51 48 44 43 45 46 50 49 50 53 55 58 61 64 67 70 71 71 67 59 52 42 33 29 24 21 19 19 23 27 30 35
27 26 29 32 38 43 49 52 54 54 53 50 48 42 39 39 40 45 44 45 46 50 53 60 63 69 72 71 75 74 70 63 56 47 37 29 26 22 21 19 22 26 29 34
26 26 29 33 39 45 50 55 55 54 52 46 41 36 35 35 39 38 37 40 48 52 59 64 69 75 76 79 78 77 74 68 60 52 43 36 27 24 21 21 21 24 28 33
27 27 30 34 41 47 53 55 53 51 49 38 32 31 31 33 33 30 36 43 48 55 61 67 73 78 79 83 83 81 82 77 65 57 48 40 34 28 23 21 21 23 26 30
27 27 30 36 42 50 53 54 55 50 36 27 26 27 27 26 23 31 37 45 50 55 60 66 72 78 82 84 87 89 86 80 75 64 54 45 36 30 28 23 21 22 25 28
24 27 30 36 43 49 50 53 50 39 25 21 23 24 21 20 25 32 39 46 52 56 61 66 71 76 79 83 88 88 91 87 81 73 64 52 42 33 26 28 22 21 24 26
19 26 30 36 45 46 48 49 36 23 18 19 20 15 17 23 29 34 42 46 51 56 61 66 71 73 77 81 85 89 92 90 86 80 73 61 49 41 30 25 25 23 22 26
19 24 30 37 42 40 43 39 24 17 16 15 12 16 21 26 32 38 42 47 52 56 62 65 70 73 75 79 84 87 92 94 92 89 82 70 58 48 38 28 24 23 23 24
19 22 28 33 37 35 36 31 19 12 10 12 15 19 24 29 35 38 44 48 52 58 61 65 69 73 75 78 82 88 91 94 97 94 89 80 67 54 45 35 27 23 22 23
17 20 27 32 33 31 29 25 14 8 10 14 18 23 29 32 36 40 45 50 55 59 63 65 68 72 75 79 82 85 90 93 95 94 92 84 75 63 51 41 33 26 23 22
15 18 24 28 30 31 23 17 17 19 19 21 24 27 31 35 40 45 51 56 60 63 65 67 69 73 75 78 81 84 86 92 96 96 94 90 79 73 58 47 38 31 26 23
11 16 21 23 27 25 23 20 20 21 22 25 29 33 37 41 45 49 52 55 58 60 63 66 69 72 75 78 81 85 89 90 96 97 95 91 86 78 68 53 43 35 29 24
11 14 18 19 21 22 23 22 23 23 25 28 31 34 39 42 45 49 52 54 57 57 61 65 69 72 76 81 83 86 89 91 93 94 96 93 89 84 73 61 50 40 32 27
14 14 16 18 19 21 22 23 23 25 29 33 35 36 38 41 44 48 51 52 55 59 62 65 69 73 77 79 82 84 88 91 93 95 96 94 95 90 80 67 56 46 38 31
19 15 17 19 21 21 22 23 24 26 29 32 35 37 39 42 44 47 50 53 56 58 62 65 69 74 77 82 85 86 88 91 95 94 94 96 96 94 84 75 62 52 43 36
23 20 20 20 21 23 22 23 26 28 30 33 36 38 40 43 47 50 52 54 57 60 63 67 71 74 78 83 87 88 90 92 94 97 94 96 98 95 90 81 69 58 48 41
26 24 23 25 26 25 28 27 27 30 33 36 37 39 43 46 48 51 54 57 60 65 67 70 73 76 80 84 87 90 90 91 94 96 94 97 99 98 92 85 77 64 54 45
30 27 27 28 30 31 32 33 33 34 37 39 41 42 45 48 51 52 55 59 63 66 69 72 76 79 82 86 87 89 91 93 92 95 96 99 101 100 95 91 79 72 59 50
35 31 30 31 33 34 36 36 37 38 40 41 43 44 46 49 52 53 58 61 64 67 70 73 78 81 86 86 88 88 90 93 93 95 96 101 100 103 102 94 85 75 66 55
41 36 35 34 35 36 37 39 39 41 40 42 46 48 46 50 52 54 56 60 64 68 73 76 80 82 87 89 89 90 89 93 94 94 96 99 102 102 104 99 91 82 71 62
Wind_Direction
304 299 297 301 302 300 302 310 317 318 317 319 320 323 327 329 330 332 331 336 340 340 341 342 345 346 348 348 349 348 346 340 331 320 305 282 254 244 236 228 217 213 214 214
299 297 300 300 296 298 307 314 319 317 319 319 321 326 329 331 332 332 334 340 341 342 343 344 346 346 347 349 349 349 349 345 338 327 313 293 258 243 237 231 226 214 214 215
299 300 302 293 292 303 313 320 320 320 320 321 325 328 332 332 332 334 338 341 341 343 344 345 346 346 348 351 352 352 352 349 342 334 319 301 272 247 246 240 231 219 212 215
301 299 289 287 295 309 319 321 322 322 322 324 326 329 331 332 333 336 340 342 343 344 346 346 346 346 350 351 355 354 353 353 346 340 325 311 290 260 252 241 232 222 215 213
299 287 283 290 305 313 317 322 323 323 325 327 327 330 331 331 335 337 342 343 345 345 346 347 348 348 351 352 355 356 355 353 352 342 333 317 302 278 261 242 233 225 221 217
295 277 283 295 309 314 317 321 323 326 328 327 327 330 332 332 337 339 344 345 346 346 348 350 351 351 353 354 355 358 358 355 355 348 339 324 311 291 271 253 239 231 224 224
278 275 286 300 309 315 318 322 326 329 327 326 329 331 335 337 340 346 348 347 348 350 353 354 355 356 358 357 358 359 360 358 357 354 345 333 316 302 280 262 250 239 232 227
270 279 292 304 311 315 321 323 325 328 330 329 331 334 337 341 346 349 347 350 352 355 359 3 3 2 3 4 3 1 3 1 358 355 352 341 325 307 290 268 254 248 236 235
271 284 298 307 312 318 320 323 329 329 328 330 332 336 340 344 349 349 352 356 4 9 15 13 14 13 12 11 10 6 5 4 0 357 353 347 334 316 298 279 259 251 241 235
277 288 302 309 315 317 319 325 326 327 328 331 334 338 343 350 351 356 4 19 22 21 20 21 18 18 17 15 13 12 9 6 3 360 356 348 342 326 308 290 270 255 246 237
281 296 304 312 316 319 324 325 327 325 328 331 337 341 348 353 2 19 24 24 24 24 23 23 21 21 18 17 14 14 13 8 6 3 359 356 345 334 318 300 281 264 252 242
286 300 308 315 320 323 326 327 327 325 324 336 342 346 350 9 28 24 27 28 26 24 23 21 21 19 18 17 16 15 14 11 8 5 2 358 353 342 327 312 292 273 259 247
290 302 313 320 327 330 326 326 326 326 333 346 348 349 14 32 29 26 26 26 22 23 22 20 19 17 17 16 16 15 15 15 11 7 4 360 355 349 337 321 305 284 266 256
293 304 319 329 329 329 328 328 332 339 347 354 357 28 38 34 30 26 24 22 21 19 18 17 17 17 16 15 16 15 15 14 13 11 5 2 357 352 344 332 313 298 276 261
294 314 332 332 334 331 332 333 342 351 360 17 46 48 41 32 29 25 23 21 20 18 17 16 16 15 14 13 13 14 13 13 12 11 9 4 0 354 347 338 325 306 289 270
296 325 340 339 341 348 341 338 344 3 43 70 58 40 34 29 26 22 21 19 17 17 15 15 13 13 12 12 12 11 10 12 12 11 9 7 2 358 351 343 334 318 297 280
302 335 342 349 352 2 354 342 346 30 67 50 39 28 27 23 22 19 17 16 14 12 11 11 11 10 10 9 9 10 8 9 10 10 8 6 5 1 354 348 339 328 310 290
299 339 351 353 3 8 17 27 40 38 35 32 27 26 23 20 17 15 14 12 9 8 5 5 6 7 6 6 6 7 8 6 8 9 7 8 6 2 358 351 346 336 323 303
299 331 340 357 7 7 6 9 15 13 14 16 19 17 16 12 11 10 8 6 3 2 2 1 2 5 4 5 5 4 7 6 4 6 7 6 7 3 358 354 349 342 331 317
285 326 334 345 356 358 356 359 5 6 8 10 11 10 9 5 6 4 2 2 2 2 1 2 2 1 4 3 3 4 4 4 3 4 5 5 4 5 0 355 350 345 337 326
270 301 314 326 336 345 347 350 354 356 357 359 360 360 0 360 359 358 359 360 359 359 359 360 360 0 359 1 0 2 2 2 3 2 2 4 4 5 2 357 352 347 340 330
258 277 298 312 320 331 335 339 346 347 348 347 350 354 355 355 354 356 356 355 354 354 355 356 357 357 357 356 358 359 0 359 360 1 0 1 3 1 1 358 354 349 343 335
251 267 283 296 308 315 322 329 334 338 341 344 346 346 348 350 350 352 352 352 351 352 353 353 353 353 353 354 354 356 358 357 358 358 359 358 360 0 1 359 356 352 346 339
248 260 275 288 298 306 311 319 325 329 333 337 341 343 344 347 346 347 348 349 349 350 351 351 351 350 350 351 352 353 355 355 356 357 359 358 358 359 358 358 356 354 348 343
245 254 268 281 289 296 302 310 316 322 326 330 334 339 339 340 341 342 343 344 345 347 348 349 350 350 348 348 349 350 351 352 354 355 354 357 356 357 357 356 355 353 349 344
246 252 260 271 281 288 297 304 309 316 322 327 329 332 333 334 335 338 339 337 341 343 344 345 345 347 346 348 346 348 348 350 351 353 352 353 354 355 355 354 353 351 348 344
249 254 259 265 274 283 292 298 305 308 315 319 324 326 329 330 332 333 331 334 337 338 341 342 344 344 344 347 345 347 346 348 349 350 351 353 353 353 353 353 352 350 349 346
Height
10622 10615 10609 10604 10599 10595 10589 10583 10577 10568 10559 10549 10538 10528 10516 10504 10490 10477 10465 10455 10443 10429 10413 10396 10380 10364 10350 10335 10321 10306 10292 10280 10272 10266 10261 10259 10257 10258 10260 10266 10270 10276 10287 10299
10610 10605 10601 10596 10592 10588 10583 10576 10569 10561 10551 10540 10529 10519 10508 10495 10482 10471 10459 10448 10436 10423 10407 10392 10375 10360 10345 10332 10316 10301 10288 10275 10266 10260 10255 10252 10251 10251 10253 10257 10262 10266 10274 10285
10600 10596 10593 10589 10586 10581 10577 10570 10562 10554 10544 10533 10522 10509 10501 10488 10477 10465 10454 10444 10432 10418 10403 10388 10372 10357 10343 10327 10312 10297 10283 10271 10261 10255 10249 10246 10244 10245 10246 10247 10252 10256 10262 10272
10592 10588 10586 10583 10579 10575 10570 10564 10555 10544 10536 10526 10516 10503 10492 10481 10470 10460 10450 10440 10428 10413 10399 10385 10369 10353 10339 10324 10307 10292 10278 10268 10257 10250 10244 10240 10238 10237 10238 10238 10242 10247 10252 10261
10586 10582 10580 10578 10573 10569 10563 10557 10547 10538 10528 10517 10506 10500 10487 10475 10468 10457 10446 10437 10424 10410 10397 10383 10368 10351 10336 10319 10305 10289 10275 10264 10254 10244 10239 10235 10232 10231 10230 10231 10234 10239 10243 10250
10579 10577 10574 10573 10569 10564 10557 10549 10541 10531 10520 10508 10498 10491 10483 10473 10463 10454 10445 10432 10419 10406 10395 10381 10366 10351 10335 10318 10302 10288 10275 10262 10252 10243 10235 10230 10227 10226 10224 10224 10225 10229 10234 10239
10572 10572 10570 10568 10564 10558 10552 10543 10533 10523 10512 10500 10491 10481 10473 10467 10459 10449 10439 10428 10416 10405 10392 10379 10365 10350 10334 10317 10301 10286 10272 10260 10249 10241 10233 10226 10221 10219 10218 10218 10218 10221 10224 10229
10567 10567 10565 10562 10558 10552 10544 10536 10526 10516 10505 10495 10485 10476 10468 10461 10454 10446 10437 10426 10416 10403 10391 10378 10363 10349 10333 10317 10302 10286 10272 10259 10246 10236 10229 10222 10217 10213 10211 10211 10211 10212 10215 10218
10563 10562 10559 10556 10551 10544 10537 10528 10519 10509 10498 10489 10481 10473 10466 10461 10453 10444 10434 10425 10415 10403 10390 10377 10363 10349 10333 10317 10302 10286 10272 10258 10246 10235 10226 10219 10212 10209 10206 10204 10204 10204 10206 10209
10558 10557 10554 10550 10545 10538 10530 10521 10511 10500 10492 10484 10477 10469 10463 10457 10449 10442 10434 10424 10414 10401 10390 10376 10362 10347 10332 10318 10303 10288 10271 10257 10245 10234 10225 10216 10210 10203 10200 10198 10197 10196 10197 10200
10553 10551 10548 10544 10539 10531 10521 10512 10503 10494 10485 10479 10472 10466 10460 10453 10448 10441 10433 10423 10413 10401 10389 10376 10362 10348 10334 10319 10304 10289 10274 10258 10244 10233 10223 10216 10207 10199 10194 10192 10190 10189 10189 10191
10547 10546 10543 10539 10532 10523 10513 10504 10494 10484 10478 10473 10468 10463 10458 10452 10447 10441 10432 10422 10412 10400 10389 10376 10363 10349 10335 10321 10306 10291 10275 10260 10245 10232 10221 10212 10205 10198 10189 10186 10184 10183 10182 10182
10543 10541 10538 10533 10525 10515 10505 10496 10485 10476 10472 10468 10465 10461 10456 10452 10446 10439 10430 10420 10410 10400 10389 10376 10363 10350 10337 10323 10309 10293 10277 10261 10246 10232 10220 10210 10201 10193 10188 10179 10176 10175 10175 10175
10539 10537 10533 10526 10518 10508 10498 10487 10479 10473 10469 10466 10463 10459 10455 10451 10444 10437 10428 10419 10409 10399 10388 10376 10364 10352 10338 10325 10311 10295 10279 10263 10249 10234 10220 10209 10198 10190 10184 10178 10171 10167 10167 10167
10535 10532 10528 10521 10513 10502 10492 10483 10476 10471 10467 10464 10462 10459 10455 10449 10442 10435 10427 10418 10408 10399 10388 10377 10365 10353 10340 10327 10313 10298 10282 10266 10249 10236 10222 10208 10197 10187 10179 10172 10168 10162 10158 10159
10531 10528 10523 10517 10508 10499 10490 10481 10475 10471 10468 10466 10463 10459 10454 10448 10441 10434 10425 10417 10408 10398 10387 10377 10365 10353 10341 10328 10314 10299 10285 10268 10254 10237 10223 10209 10195 10185 10175 10167 10161 10158 10154 10151
10526 10523 10518 10512 10506 10497 10489 10483 10476 10472 10470 10467 10463 10459 10453 10447 10440 10432 10424 10416 10407 10397 10387 10376 10365 10354 10341 10328 10315 10299 10285 10272 10256 10241 10224 10208 10194 10183 10173 10163 10157 10151 10147 10145
10521 10518 10514 10509 10503 10495 10489 10484 10481 10478 10474 10469 10464 10458 10452 10445 10438 10431 10423 10413 10405 10396 10386 10375 10364 10353 10341 10328 10315 10302 10289 10274 10258 10242 10227 10212 10196 10182 10171 10161 10152 10146 10141 10137
10515 10513 10510 10506 10501 10496 10491 10487 10483 10479 10474 10469 10463 10456 10450 10443 10436 10428 10420 10412 10404 10395 10385 10374 10364 10352 10340 10328 10315 10301 10288 10273 10258 10243 10228 10212 10197 10182 10168 10157 10149 10141 10135 10131
10509 10508 10506 10503 10499 10495 10491 10486 10482 10477 10473 10467 10461 10454 10447 10441 10434 10426 10419 10411 10403 10393 10383 10373 10361 10349 10336 10323 10311 10298 10285 10272 10259 10243 10229 10212 10196 10182 10167 10154 10145 10137 10130 10125
10503 10502 10501 10499 10496 10492 10488 10483 10479 10474 10470 10464 10457 10451 10445 10438 10431 10424 10416 10407 10399 10390 10381 10370 10359 10347 10335 10325 10312 10300 10286 10272 10257 10241 10226 10211 10195 10181 10167 10152 10141 10132 10125 10119
10496 10495 10495 10493 10490 10487 10483 10479 10475 10470 10466 10460 10453 10447 10441 10434 10428 10421 10413 10404 10394 10386 10376 10366 10354 10344 10332 10320 10308 10295 10282 10268 10254 10240 10224 10209 10193 10178 10164 10152 10139 10128 10119 10113
10489 10488 10488 10486 10484 10481 10478 10474 10470 10466 10461 10455 10449 10443 10437 10430 10423 10416 10408 10401 10392 10382 10372 10361 10351 10340 10329 10317 10304 10291 10278 10264 10250 10236 10221 10207 10192 10175 10162 10148 10136 10125 10115 10106
10480 10480 10479 10479 10477 10474 10471 10468 10464 10460 10456 10450 10444 10438 10431 10425 10418 10410 10402 10394 10385 10376 10366 10356 10346 10335 10323 10312 10300 10287 10274 10260 10246 10231 10217 10203 10187 10173 10157 10145 10132 10120 10110 10101
10470 10470 10471 10470 10468 10466 10463 10460 10456 10452 10448 10443 10438 10433 10425 10418 10412 10405 10397 10388 10379 10370 10361 10351 10340 10330 10318 10307 10295 10282 10269 10256 10242 10229 10213 10199 10184 10168 10155 10141 10127 10114 10102 10093
10459 10460 10461 10460 10459 10457 10455 10452 10448 10445 10440 10436 10430 10425 10419 10413 10405 10398 10390 10382 10373 10363 10354 10345 10334 10323 10312 10301 10289 10276 10263 10250 10236 10223 10208 10194 10178 10164 10149 10135 10122 10109 10097 10087
10449 10450 10450 10449 10448 10447 10446 10442 10439 10435 10432 10427 10422 10417 10412 10405 10398 10391 10383 10375 10366 10356 10346 10337 10327 10316 10305 10294 10281 10269 10256 10244 10231 10217 10203 10189 10173 10158 10143 10128 10114 10102 10090 10080